Location: Unspecified
(60.3725°N, 0.0000°E)
Time: 20:35:13
(UTC+00:00)

OBJECT D - Visible Passes

Search period start: 04 April 2026 00:00
Search period end: 14 April 2026 00:00
Orbit: 849 x 853 km, 86.0° (Epoch: 29 March)

Date Brightness Start Highest point End Pass type
(mag) Time Alt. Az. Time Alt. Az. Time Alt. Az.
4 Apr ? 00:42:55 10° NNE 00:43:48 10° NE 00:44:42 10° NE visible
4 Apr ? 02:23:04 10° N 02:28:07 33° ENE 02:33:08 10° SE visible
4 Apr ? 04:05:20 10° N 04:10:55 67° W 04:16:28 10° S visible
5 Apr ? 02:11:17 10° N 02:16:14 30° ENE 02:21:09 10° SE visible
5 Apr ? 03:53:30 10° N 03:59:07 73° W 04:04:42 10° S visible
6 Apr ? 01:59:30 10° N 02:04:20 28° ENE 02:09:08 10° ESE visible
6 Apr ? 03:41:40 10° N 03:47:19 79° W 03:52:54 10° S visible
7 Apr ? 01:47:44 10° N 01:52:25 26° ENE 01:57:06 10° ESE visible
7 Apr ? 03:29:51 10° N 03:35:30 85° W 03:41:07 10° S visible
8 Apr ? 01:35:57 10° N 01:40:32 25° ENE 01:45:04 10° ESE visible
8 Apr ? 03:18:01 10° N 03:23:41 88° E 03:29:18 10° S visible
9 Apr ? 01:24:11 10° N 01:28:36 23° ENE 01:33:00 10° ESE visible
9 Apr ? 03:06:12 10° N 03:11:51 82° E 03:17:28 10° S visible
10 Apr ? 01:12:25 10° N 01:16:41 21° ENE 01:20:56 10° ESE visible
10 Apr ? 02:54:22 10° N 03:00:01 76° E 03:05:38 10° SSE visible
11 Apr ? 01:00:40 10° N 01:04:46 20° NE 01:08:50 10° ESE visible
11 Apr ? 02:42:33 10° N 02:48:11 70° E 02:53:47 10° SSE visible
12 Apr ? 00:48:56 10° N 00:52:50 19° NE 00:56:43 10° E visible
12 Apr ? 02:30:44 10° N 02:36:20 65° ENE 02:41:55 10° SSE visible
13 Apr ? 00:37:11 10° NNE 00:40:54 18° NE 00:44:35 10° E visible
13 Apr ? 02:18:55 10° N 02:24:30 60° ENE 02:30:02 10° SSE visible
13 Apr ? 04:01:34 10° NNW 04:06:38 35° W 04:11:40 10° SW visible
